Retour au catalogue

ARIANE 2 DEB

LostGTO
NORAD 27045·DEBRIS·🇫🇷 France

Lancé Jan 27, 1989 depuis Guiana Space Centre

Loading…

TLE

PériméSource: Space-Track

Époque: Oct 2, 2017, 13:50 UTC

1 27045U 89006AA  17275.57644405  .00000002  00000-0  00000+0 0  9999
2 27045   8.7522 352.4465 7119421 296.8849   9.1324  2.25335763131611

Suivez ARIANE 2 DEB en temps réel avec AllMySat

Download on the App Store